{"data":{"norad_id":62600,"epoch":"2026-09-21T22:25:26.715072Z","epoch_age_seconds":47382,"freshness":"FRESH","line1":"1 62600U 25008P   26264.93433698  .00011257  00000+0  41795-3 0  9998","line2":"2 62600  43.0020 249.9695 0001959 272.0629  87.9998 15.27582233 95575","mean_motion":15.27582233,"eccentricity":0.0001959,"inclination_deg":43.002,"raan_deg":249.9695,"arg_perigee_deg":272.0629,"mean_anomaly_deg":87.9998,"bstar":0.00041795,"rev_number":9557,"period_min":94.266610915735,"perigee_km":481.69830459613,"apogee_km":484.38651468883,"semimajor_km":6861.1794096425,"source":"CELESTRAK","updated_at":"2026-09-22T09:00:49.632896Z"}}